Location: ?p Dangia
(12.0167°N, 108.4333°E)
Time: 11:33:15
(UTC+00:00)

CZ-4 R/B - Pass Details

Date: 07 June 2020
Orbit: 531 x 598 km, 97.8° (Epoch: 14 July)

Event Time Altitude Azimuth Distance (km) Brightness Sun altitude
Rises 11:41:51 0° 173° (S) 2,819 4.6 -8.0°
Reaches altitude 10° 11:44:01 10° 176° (S) 1,923 3.8 -8.5°
Maximum altitude 11:48:10 68° 259° (WSW) 644 1.8 -9.4°
Drops below altitude 10° 11:52:21 10° 342° (NNW) 1,929 4.8 -10.3°
Sets 11:54:31 0° 345° (NNW) 2,828 5.6 -10.8°
